DW9614 Weather Reports


Display with metric or nautical units.
time (UTC)temp
F
wind
direction
speed
MPH
gust
MPH
rain 1hr
in
rain 24hr
in
rain mn
in
humidity
%
barometer
mb
20260902163054 94 229 6.0 11.0 0.00 0.00 0.00 55 1014.3
20260902161600 91 211 5.0 12.0 0.00 0.00 0.00 59 1014.4
20260902160049 91 281 4.0 11.0 0.00 0.00 0.00 60 1014.4
20260902154604 91 236 3.0 9.0 0.00 0.00 0.00 61 1014.4
20260902153047 89 231 3.0 8.0 0.00 0.00 0.00 64 1014.4
20260902151541 88 228 4.0 10.0 0.00 0.00 0.00 67 1014.4
20260902150040 87 188 3.0 10.0 0.00 0.00 0.00 67 1014.5
20260902144540 85 206 5.0 11.0 0.00 0.00 0.00 70 1014.4
20260902143034 84 224 5.0 14.0 0.00 0.00 0.00 72 1014.4
20260902141533 83 205 5.0 10.0 0.00 0.00 0.00 72 1014.4
20260902140037 83 218 4.0 12.0 0.00 0.00 0.00 73 1014.5
20260902134532 81 229 4.0 13.0 0.00 0.00 0.00 75 1014.5
20260902133031 81 205 6.0 10.0 0.00 0.00 0.00 75 1014.6
20260902131530 81 184 4.0 9.0 0.00 0.00 0.00 76 1014.6
20260902130030 80 217 4.0 10.0 0.00 0.00 0.00 77 1014.7
20260902124629 79 218 6.0 10.0 0.00 0.00 0.00 78 1014.7
20260902123031 78 192 5.0 11.0 0.00 0.00 0.00 80 1014.8
20260902121528 77 216 4.0 7.0 0.00 0.00 0.00 81 1014.9
20260902120027 77 199 2.0 7.0 0.00 0.00 0.00 81 1014.8
20260902114526 77 195 2.0 6.0 0.00 0.00 0.00 81 1014.6
20260902113024 77 205 2.0 6.0 0.00 0.00 0.00 80 1014.6
20260902111523 77 198 2.0 6.0 0.00 0.00 0.00 80 1014.5
20260902110021 78 205 2.0 9.0 0.00 0.00 0.00 78 1014.6
20260902104521 78 203 4.0 6.0 0.00 0.00 0.00 78 1014.6
20260902103034 79 211 4.0 8.0 0.00 0.00 0.00 77 1014.6
20260902101530 78 217 4.0 7.0 0.00 0.00 0.00 77 1014.5
20260902100017 78 213 5.0 9.0 0.00 0.00 0.00 77 1014.4
20260902094515 79 217 4.0 8.0 0.00 0.00 0.00 77 1014.3
20260902093014 79 205 4.0 8.0 0.00 0.00 0.00 76 1014.2
20260902091512 79 219 3.0 6.0 0.00 0.00 0.00 76 1014.1
20260902090012 78 216 3.0 7.0 0.00 0.00 0.00 76 1014.1
20260902084511 79 207 3.0 7.0 0.00 0.00 0.00 75 1014.0
20260902083008 80 214 3.0 7.0 0.00 0.00 0.00 73 1014.1
20260902081506 80 211 2.0 6.0 0.00 0.00 0.00 72 1014.0
20260902080006 80 207 3.0 7.0 0.00 0.00 0.00 72 1013.9
20260902074506 80 218 4.0 8.0 0.00 0.00 0.00 72 1013.9
20260902073003 81 223 4.0 8.0 0.00 0.00 0.00 70 1014.1
20260902071501 82 207 3.0 7.0 0.00 0.00 0.00 69 1014.1
20260902070101 82 223 4.0 8.0 0.00 0.00 0.00 69 1014.1
20260902064619 82 201 5.0 8.0 0.00 0.00 0.00 69 1014.1
20260902061557 82 215 5.0 8.0 0.00 0.00 0.00 69 1014.1
20260902060110 82 215 4.0 6.0 0.00 0.00 0.00 70 1014.2
20260902054557 82 213 3.0 6.0 0.00 0.00 0.00 70 1014.2
20260902053054 83 206 3.0 6.0 0.00 0.00 0.00 71 1014.0
20260902051554 83 216 3.0 7.0 0.00 0.00 0.00 70 1014.1
20260902050107 83 212 3.0 7.0 0.00 0.00 0.00 71 1014.1
20260902044606 83 200 2.0 5.0 0.00 0.00 0.00 72 1014.0
20260902043048 84 194 3.0 6.0 0.00 0.00 0.00 73 1014.0
20260902041548 83 196 3.0 5.0 0.00 0.00 0.00 75 1014.0
20260902040052 81 190 0.0 2.0 0.00 0.00 0.00 81 1013.9
20260902034555 81 190 0.0 1.0 0.00 0.00 0.00 83 1014.0
20260902033050 81 190 0.0 0.0 0.00 0.00 0.00 83 1014.1
20260902031547 82 190 0.0 0.0 0.00 0.00 0.00 83 1014.0
20260902030045 82 190 0.0 0.0 0.00 0.00 0.00 82 1014.1
20260902024553 83 190 0.0 0.0 0.00 0.00 0.00 82 1014.0
20260902023045 83 190 0.0 0.0 0.00 0.00 0.00 81 1014.0
20260902021551 83 190 0.0 0.0 0.00 0.00 0.00 81 1013.9
20260902020044 83 190 0.0 0.0 0.00 0.00 0.00 81 1013.8
20260902014543 84 190 0.0 0.0 0.00 0.00 0.00 81 1013.8
20260902013042 84 190 0.0 0.0 0.00 0.00 0.00 80 1013.6
20260902011541 85 190 0.0 0.0 0.00 0.00 0.00 77 1013.5
20260902010045 86 190 0.0 0.0 0.00 0.00 0.00 75 1013.3
20260902004541 87 190 0.0 0.0 0.00 0.00 0.00 74 1013.4
20260902003040 88 190 0.0 0.0 0.00 0.00 0.00 71 1013.4
20260902001539 89 190 0.0 0.0 0.00 0.00 0.00 69 1013.4
20260902000039 90 190 0.0 1.0 0.00 0.00 0.00 65 1013.3
20260901234538 92 190 0.0 4.0 0.00 0.00 0.00 62 1013.5
20260901233038 92 181 3.0 6.0 0.00 0.00 0.00 60 1013.4
20260901231637 94 207 2.0 6.0 0.00 0.00 0.00 58 1013.5
20260901230037 94 227 4.0 8.0 0.00 0.00 0.00 57 1013.5
20260901224537 95 213 3.0 7.0 0.00 0.00 0.00 52 1013.6
20260901223043 95 212 6.0 9.0 0.00 0.00 0.00 51 1013.6
20260901221536 95 208 3.0 7.0 0.00 0.00 0.00 53 1013.6
20260901220038 95 182 5.0 11.0 0.00 0.00 0.00 52 1013.5
20260901214536 95 210 5.0 8.0 0.00 0.00 0.00 53 1013.3
20260901213058 95 196 5.0 10.0 0.00 0.00 0.00 53 1013.2
20260901211533 96 214 4.0 9.0 0.00 0.00 0.00 53 1013.4
20260901210032 96 200 5.0 10.0 0.00 0.00 0.00 53 1013.4
20260901204533 97 213 3.0 10.0 0.00 0.00 0.00 54 1013.4
20260901203030 98 224 3.0 6.0 0.00 0.00 0.00 50 1013.5
20260901201529 97 201 3.0 9.0 0.00 0.00 0.00 54 1013.5
20260901200027 97 215 3.0 7.0 0.00 0.00 0.00 52 1013.6
20260901194524 98 301 0.0 10.0 0.00 0.00 0.00 48 1013.8
20260901193025 97 248 2.0 7.0 0.00 0.00 0.00 51 1013.9
20260901191523 97 195 3.0 7.0 0.00 0.00 0.00 50 1014.1
20260901190021 96 257 4.0 8.0 0.00 0.00 0.00 53 1014.1
20260901184523 95 182 5.0 9.0 0.00 0.00 0.00 56 1014.1
20260901183016 94 205 3.0 10.0 0.00 0.00 0.00 55 1014.2
20260901181516 94 176 6.0 10.0 0.00 0.00 0.00 56 1014.3
20260901180014 94 195 6.0 11.0 0.00 0.00 0.00 57 1014.4
20260901174514 93 214 6.0 10.0 0.00 0.00 0.00 60 1014.6
20260901173012 94 208 4.0 8.0 0.00 0.00 0.00 58 1014.6
20260901171513 93 201 4.0 7.0 0.00 0.00 0.00 59 1014.7
20260901170011 91 205 4.0 8.0 0.00 0.00 0.00 61 1014.8
20260901164509 91 217 4.0 8.0 0.00 0.00 0.00 60 1015.0